{"data":{"norad_id":64958,"intl_designator":"2025-159C","name":"HULIANWANG DIGUI-37","alt_names":[],"object_type":"PAYLOAD","status":"ACTIVE","operator":null,"country":"PRC","launch_date":"2025-07-27","launch_site_code":"TAISC","launch_vehicle":null,"mission":null,"orbit_class":"UNKNOWN","rcs_meters":null,"size_class":null,"mass_kg":null,"dimensions":null,"purposes":[],"wikipedia_slug":null,"has_3d_model":false,"image_url":null,"decayed_at":null,"tle_current":{"epoch":"2026-09-21T22:36:12.356352Z","epoch_age_seconds":43696,"freshness":"FRESH","line1":"1 64958U 25159C   26264.94180968 -.00000062  00000+0 -17878-3 0  9992","line2":"2 64958  86.4862 249.5535 0002042  87.3750 272.7618 13.24401627 55934","mean_motion":13.24401627,"eccentricity":0.0002042,"inclination_deg":86.4862,"raan_deg":249.5535,"arg_perigee_deg":87.375,"mean_anomaly_deg":272.7618,"bstar":-0.00017878,"rev_number":5593,"period_min":108.72834725081,"perigee_km":1166.413078442,"apogee_km":1169.4949020024,"semimajor_km":7546.0909902222,"source":"CELESTRAK","updated_at":"2026-09-22T09:00:30.061227Z"}}}